User: anonymous   Login
Location: Lecco
(45.8566°N, 9.3977°E)
Time: 11:16:48
(UTC+02:00)
Language:

Transit 2A Rocket - Orbit

View from above orbital plane
View from above orbital plane
View from above satellite
View from above satellite

Ground track
Ground track

The orbit data is extracted from the following two-line orbital elements,

1    47U 60007C   19236.40677857 -.00000053 +00000-0 +13274-4 0  9999
2    47 066.6638 231.8937 0225860 163.2413 197.6316 14.42046260091703
Epoch (UTC): 24 August 2019 09:45:45
Eccentricity: 0.0225860
inclination: 66.6638°
perigee height: 591 km
apogee height: 913 km
right ascension of ascending node: 231.8937°
argument of perigee: 163.2413°
revolutions per day: 14.42046260
mean anomaly at epoch: 197.6316°
orbit number at epoch: 9170

The dashed part of the orbit path shows where the satellite is in the earth's shadow,  

DLR